This demonstration page uses our WeatherBlox Daily Observations layout. Learn more.

Left ArrowRight Arrow

Hourly Observations for December 13, 2020

Temp ( °F °C ) Dew Point ( °F °C ) Humidity (%) Winds ( mph kmh ) Pressure ( in mb ) Visibility ( mi km ) Precip ( " mm )
12:27 am 00:27 Cloudy 44 6.7 36 2.2 73 73 WSW 7 11 30.02 1016 10 16 0.00 0.00
12:53 am 00:53 Cloudy 44 6.7 36 2.2 73 73 WSW 7 11 30.00 1016 10 16 0.00 0.00
1:00 am 01:00 Cloudy 44 6.7 36 2.2 73 73 WSW 8 13 30.02 1016 10 16 0.00 0.00
1:53 am 01:53 Cloudy with Light Rain 43 6.1 37 2.8 80 80 W 12 19 30.01 1016 9 14 0.00 0.00
2:21 am 02:21 Cloudy 42 5.6 36 2.2 79 79 W 8 13 30.04 1017 10 16 0.00 0.00
2:53 am 02:53 Cloudy 42 5.6 36 2.2 79 79 W 7 11 30.04 1017 10 16 0.00 0.00
3:53 am 03:53 Cloudy 42 5.6 35 1.7 76 76 W 5 7 30.07 1018 10 16 0.00 0.00
4:26 am 04:26 Cloudy 41 5 34 1.1 76 76 W 9 15 30.09 1019 10 16 0.00 0.00
4:53 am 04:53 Cloudy 41 5 34 1.1 76 76 W 6 9 30.08 1019 10 16 0.00 0.00
5:53 am 05:53 Cloudy 41 5 35 1.7 79 79 WNW 9 15 30.12 1020 10 16 0.00 0.00
6:53 am 06:53 Cloudy 40 4.4 34 1.1 79 79 WNW 5 7 30.14 1021 10 16 0.00 0.00
7:53 am 07:53 Cloudy 40 4.4 34 1.1 79 79 WNW 5 7 30.15 1021 10 16 0.00 0.00
8:53 am 08:53 Cloudy 40 4.4 35 1.7 83 83 NW 3 6 30.17 1022 10 16 0.00 0.00
9:53 am 09:53 Cloudy 41 5 34 1.1 76 76 Calm 30.20 1023 10 16 0.00 0.00
10:03 am 10:03 Cloudy 41 5 33 0.6 73 73 NE 6 9 30.20 1023 10 16 0.00 0.00
10:14 am 10:14 Cloudy 42 5.6 33 0.6 71 71 N 6 9 30.19 1022 10 16 0.00 0.00
10:53 am 10:53 Cloudy 42 5.6 32 0 68 68 NE 5 7 30.19 1023 10 16 0.00 0.00
11:53 am 11:53 Cloudy 43 6.1 32 0 65 65 Calm 30.17 1022 10 16 0.00 0.00
12:53 pm 12:53 Cloudy 44 6.7 32 0 63 63 Calm 30.15 1021 10 16 0.00 0.00
1:53 pm 13:53 Cloudy 44 6.7 32 0 63 63 Calm 30.15 1021 10 16 0.00 0.00
2:53 pm 14:53 Cloudy 44 6.7 32 0 63 63 Calm 30.14 1021 10 16 0.00 0.00
3:53 pm 15:53 Cloudy 43 6.1 33 0.6 68 68 Calm 30.14 1021 10 16 0.00 0.00
4:53 pm 16:53 Cloudy 43 6.1 33 0.6 68 68 N 6 9 30.14 1021 10 16 0.00 0.00
5:53 pm 17:53 Cloudy 41 5 33 0.6 73 73 NNW 6 9 30.14 1021 10 16 0.00 0.00
6:53 pm 18:53 Cloudy 41 5 33 0.6 73 73 N 5 7 30.13 1020 10 16 0.00 0.00
7:53 pm 19:53 Cloudy 41 5 33 0.6 73 73 NNE 5 7 30.12 1020 10 16 0.00 0.00
8:53 pm 20:53 Cloudy 41 5 33 0.6 73 73 NNE 5 7 30.13 1020 10 16 0.00 0.00
9:53 pm 21:53 Cloudy 40 4.4 34 1.1 79 79 Calm 30.14 1021 10 16 0.00 0.00
10:53 pm 22:53 Partly Cloudy 38 3.3 33 0.6 83 83 Calm 30.10 1019 10 16 0.00 0.00
11:31 pm 23:31 Cloudy 38 3.3 33 0.6 83 83 Calm 30.11 1019 10 16 0.00 0.00
11:53 pm 23:53 Cloudy 39 3.9 34 1.1 82 82 Calm 30.06 1018 10 16 0.00 0.00

Powered by AerisWeather